Regional Weather Roundup
Issued by NWS Cleveland, OH

Home | Current Version | Previous Version | Text Only | Print | Product List | Glossary Off
Versions: 1 2 3 4 5 6 7 8 9 10 11 12 13 14 15 16 17 18 19 20 21 22 23 24 25 26 27 28 29 30 31 32 33 34 35 36 37 38 39 40 41 42 43 44 45 46 47 48 49 50

000
ASUS41 KCLE 080702
RWRCLE
OHIO REGIONAL WEATHER ROUNDUP
NATIONAL WEATHER SERVICE CLEVELAND, OH
200 AM EST MON FEB 08 2016

NOTE: "FAIR" INDICATES FEW OR NO CLOUDS BELOW 12,000 FEET WITH NO
SIGNIFICANT WEATHER AND/OR OBSTRUCTIONS TO VISIBILITY.

OHZ001>008-015>018-024>027-034-035-043-044-080800-
   NORTHWEST OHIO

CITY           SKY/WX    TMP DP  RH WIND       PRES   REMARKS
DEFIANCE       CLOUDY    37  31  78 SW5       29.70F
FINDLAY        CLOUDY    40  33  76 SW6       29.69F
TOLEDO EXPRESS CLOUDY    38  31  76 W7        29.68F
TOLEDO EXEC    CLOUDY    40  32  73 SW6       29.69F
LIMA           CLOUDY    38  33  82 W7        29.70F
$$

OHZ009>014-019>023-028>033-038-089-080800-
   NORTHEAST OHIO

CITY           SKY/WX    TMP DP  RH WIND       PRES   REMARKS
CLE-HOPKINS    CLOUDY    45  27  49 SW8       29.74F
CLE-LAKEFRONT  CLOUDY    47  27  45 S10       29.71F
CUY CO. ARPT   NOT AVBL
LORAIN-ELYRIA  LGT RAIN  42  30  62 SW12      29.71F
ASHTABULA      CLOUDY    39  25  57 S8        29.74F
AKRON-CANTON   CLOUDY    39  23  52 S8        29.72F
WOOSTER        CLOUDY    39  25  57 SW7       29.72F
MANSFIELD      CLOUDY    40  31  70 S16       29.71F
YOUNGSTOWN     MOCLDY    39  23  52 SE8       29.73F
$$

OHZ042-051>053-060>062-070>072-077>081-080800-
  SOUTHWEST OHIO

CITY           SKY/WX    TMP DP  RH WIND       PRES   REMARKS
CINC-COVINGTON CLOUDY    43  30  60 W9        29.73F
CINC-LUNKEN    CLOUDY    43  26  51 SW5       29.74F
HAMILTON       CLOUDY    43  31  62 NW7       29.73F
DAYTON         LGT RAIN  40  34  79 NW7       29.71F
WRIGHT-PAT AFB CLOUDY    44  30  59 NW10      29.70F
DAYTON GENERAL LGT RAIN  43  30  60 W7        29.71F
WILMINGTON     CLOUDY    43  30  60 SW9       29.71F
$$

OHZ036-037-039>041-045>050-054>059-063>069-073>076-082>088-080800-
  CENTRAL AND SOUTHEAST OHIO

CITY           SKY/WX    TMP DP  RH WIND       PRES   REMARKS
COLUMBUS       LGT RAIN  41  26  55 SW3       29.74F
OSU AIRPORT    LGT RAIN  40  35  83 SW7       29.73F
BOLTON FIELD   NOT AVBL
RICKENBACK AFB NOT AVBL
NEWARK         CLOUDY    43  24  47 SW9       29.73F
MARION         LGT RAIN  40  33  76 SW10      29.72F
LANCASTER      CLOUDY    43  25  49 SW5       29.74F
ZANESVILLE     CLOUDY    40  23  50 S6        29.74F
NEW PHILLY     CLOUDY    37  25  61 SE7       29.75F
$$



USA.gov is the U.S. government's official web portal to all federal, state and local government web resources and services.